User: anonymous   Login
Location: Unspecified
(0.0000°N, 0.0000°E)
Time: 12:05:27
(UTC+00:00)
Language:

Optus B3 - Orbit

View from above orbital plane
View from above orbital plane
View from above satellite
View from above satellite

Ground track
Ground track

The orbit data is extracted from the following two-line orbital elements,

1 23227U 94055A   15147.50792266 -.00000081  00000-0  00000+0 0  9993
2 23227 006.1615 056.1647 0003276 003.2739 172.3370 01.00272961 75944
Epoch (UTC): 27 May 2015 12:11:24
Eccentricity: 0.0003276
inclination: 6.1615°
perigee height: 35772 km
apogee height: 35800 km
right ascension of ascending node: 56.1647°
argument of perigee: 3.2739°
revolutions per day: 1.00272961
mean anomaly at epoch: 172.3370°
orbit number at epoch: 7594

The dashed part of the orbit path shows where the satellite is in the earth's shadow,  

DLR